STARLINK-4753 (53845 NORAD) Tracking and Keplerian Element Data

This shows tracking and keplerian element data for the satellite.

Feedback or suggestion? Click here.




ElementValue
Catalog53845
NameSTARLINK-4753
Epoch Orbit1053
Epoch Day325.33334491
Epoch Year2022
RAAN305.6177
Inclination53.2176
Eccentricity0.0001016
Argument of Perigee88.0022
Mean Anonmoly320.5914
Mean Motion15.67101574
Decay Rate-0.01139041
L11 53845U 22114AD 22325.33334491 -.01139041 00000+0 -11550-1 0 9992
L22 53845 53.2176 305.6177 0001016 88.0022 320.5914 15.67101574 10538



Live tracking and technical data element details for STARLINK-4753 (NORAD 53845). STARLINK-4753 can be tracked NOW for your location showing map with azimuth and elevation plus other details from your city location.







IsCatalogInMostPopularTable: catalog: 53845, numindb: -1

Insert: records affected: 1


GetName: 53845 STARLINK-4753

Hit Count: inserted at: Thu, 08 Dec 2022 08:40:55 GMT